Probability
0 0 0 0 0 0 0 0 0 0 0 0 0 0 0 0 0 0 0 0 0 0 0 0 0 0 0 0 0 0 0 0 0 0 0 0 0 0 0 0 0 0 0 0
0 0 0 0 0 0 0 0 0 0 0 0 0 0 0 0 0 0 0 0 0 0 0 0 0 0 0 0 0 0 0 0 0 0 0 0 0 0 0 0 0 0 0 0
0 0 0 0 0 0 0 0 0 0 0 0 0 0 0 0 0 0 0 0 0 0 0 0 0 0 0 0 0 0 0 0 0 0 0 0 0 0 0 0 0 0 0 0
0 0 0 0 0 0 0 0 0 0 0 0 0 0 0 0 0 0 0 0 0 0 0 0 0 0 0 0 0 0 0 0 0 0 0 0 0 0 0 0 0 0 0 0
0 0 0 0 0 0 0 0 0 0 0 0 0 0 0 0 0 0 0 0 0 0 0 0 0 0 0 0 0 0 0 0 0 0 0 0 0 0 0 0 0 0 0 0
0 0 0 0 0 0 0 0 0 0 0 0 0 0 0 0 0 0 0 0 0 0 0 0 0 0 0 0 0 0 0 0 0 0 0 0 0 0 0 0 0 0 0 0
0 0 0 0 0 0 0 0 0 0 0 0 0 0 0 0 0 0 0 0 0 0 0 0 0 0 0 0 0 0 0 0 0 0 0 0 0 0 0 0 0 0 0 0
0 0 0 0 0 0 0 0 0 0 0 0 0 0 0 0 0 0 0 0 0 0 0 0 0 0 0 0 0 0 0 0 0 0 0 0 0 0 0 0 0 0 0 0
0 0 0 0 0 0 0 0 0 0 0 0 0 0 0 0 0 0 0 0 0 0 0 0 0 0 0 0 0 0 0 0 0 0 0 0 0 0 0 0 0 0 0 0
0 0 0 0 0 0 0 0 0 0 0 0 0 0 0 0 0 0 0 0 0 0 0 0 0 0 0 0 0 0 0 0 0 0 0 0 0 0 0 0 0 0 0 0
0 0 0 0 0 0 0 0 0 0 0 0 0 0 0 0 0 0 0 0 0 0 0 0 0 0 0 0 0 0 0 0 0 0 0 0 0 0 0 0 0 0 0 0
0 0 0 0 0 0 0 0 0 0 0 0 0 0 0 0 0 0 0 0 0 0 0 0 0 0 0 0 0 0 0 0 0 0 0 0 0 0 0 0 0 0 0 0
0 0 0 0 0 0 0 0 0 0 0 0 0 0 0 0 0 0 0 0 0 0 0 0 0 0 0 0 0 0 0 0 0 0 0 0 0 0 0 0 0 0 0 0
0 0 0 0 0 0 0 0 0 0 0 0 0 0 0 0 0 0 0 0 0 0 0 0 0 0 0 0 0 0 0 0 0 0 0 0 0 0 0 0 0 0 0 0
0 0 0 0 0 0 0 0 0 0 0 0 0 0 0 0 0 0 0 0 0 0 0 0 0 0 0 0 0 0 0 0 0 0 0 0 0 0 0 0 0 0 0 0
0 0 0 0 0 0 0 0 0 0 0 0 0 0 0 0 0 0 0 0 0 0 0 0 0 0 0 0 0 0 0 0 0 0 0 0 0 0 0 0 0 0 0 0
0 0 0 0 0 0 0 0 0 0 0 0 0 0 0 0 0 0 0 0 0 0 0 0 0 0 0 0 0 0 0 0 0 0 0 0 0 0 0 0 0 0 0 0
0 0 0 0 0 0 0 0 0 0 0 0 0 0 0 0 0 0 0 0 0 0 0 0 0 0 0 0 0 0 0 0 0 0 0 0 0 0 0 0 0 0 0 0
0 0 0 0 0 0 0 0 0 0 0 0 0 0 0 0 0 0 0 0 0 0 0 0 0 0 0 0 0 0 0 0 0 0 0 0 0 0 0 0 0 0 0 0
0 0 0 0 0 0 0 0 0 0 0 0 0 0 0 0 0 0 0 0 0 0 0 0 0 0 0 0 0 0 0 0 0 0 0 0 0 0 0 0 0 0 0 0
0 0 0 0 0 0 0 0 0 0 0 0 0 0 0 0 0 0 0 0 0 0 0 0 0 0 0 0 0 0 0 0 0 0 0 0 0 0 0 0 0 0 0 0
0 0 0 0 0 0 0 0 0 0 0 0 0 0 0 0 0 0 0 0 0 0 0 0 0 0 0 0 0 0 0 0 0 0 0 0 0 0 0 0 0 0 0 0
0 0 0 0 0 0 0 0 0 0 0 0 0 0 0 0 0 0 0 0 0 0 0 0 0 0 0 0 0 0 0 0 0 0 0 0 0 0 0 0 0 0 0 0
0 0 0 0 0 0 0 0 0 0 0 0 0 0 0 0 0 0 0 0 0 0 0 0 0 0 0 0 0 0 0 0 0 0 0 0 0 0 0 0 0 0 0 0
0 0 0 0 0 0 0 0 0 0 0 0 0 0 0 0 0 0 0 0 0 0 0 0 0 0 0 0 0 0 0 0 0 0 0 0 0 0 0 0 0 0 0 0
0 0 0 0 0 0 0 0 0 0 0 0 0 0 0 0 0 0 0 0 0 0 0 0 0 0 0 0 0 0 0 0 0 0 0 0 0 0 0 0 0 0 0 0
0 0 0 0 0 0 0 0 0 0 0 0 0 0 0 0 0 0 0 0 0 0 0 0 0 0 0 0 0 0 0 0 0 0 0 0 0 0 0 0 0 0 0 0
Height
5566 5567 5569 5571 5573 5576 5580 5586 5594 5603 5611 5620 5626 5634 5641 5646 5651 5656 5661 5666 5669 5673 5675 5677 5679 5679 5679 5679 5678 5676 5674 5672 5669 5666 5662 5658 5653 5648 5642 5636 5629 5622 5615 5606
5569 5570 5572 5574 5576 5579 5583 5589 5596 5604 5612 5619 5625 5632 5639 5644 5649 5654 5658 5661 5665 5667 5670 5671 5672 5672 5672 5671 5669 5667 5666 5663 5660 5656 5652 5647 5642 5637 5631 5624 5617 5609 5600 5592
5573 5573 5575 5578 5580 5584 5588 5593 5600 5607 5615 5620 5626 5633 5638 5642 5647 5651 5654 5657 5660 5662 5663 5665 5665 5665 5664 5663 5661 5659 5657 5654 5650 5646 5642 5637 5632 5626 5619 5612 5604 5595 5586 5577
5576 5579 5581 5584 5585 5589 5593 5598 5604 5610 5615 5620 5626 5631 5636 5640 5643 5647 5650 5652 5654 5656 5657 5657 5657 5657 5656 5655 5653 5651 5648 5645 5641 5636 5632 5626 5621 5614 5607 5599 5591 5582 5572 5563
5580 5582 5584 5587 5589 5592 5596 5601 5606 5611 5615 5620 5625 5629 5633 5637 5639 5642 5645 5647 5648 5649 5650 5650 5650 5649 5648 5647 5645 5642 5639 5635 5631 5626 5621 5615 5609 5602 5595 5586 5577 5568 5558 5548
5583 5585 5587 5590 5592 5595 5599 5602 5607 5610 5615 5619 5623 5627 5630 5632 5634 5637 5639 5641 5642 5643 5643 5643 5642 5642 5640 5639 5636 5633 5629 5625 5621 5616 5610 5604 5597 5590 5582 5573 5564 5555 5544 5533
5584 5586 5588 5591 5593 5597 5601 5604 5606 5609 5613 5616 5619 5623 5625 5627 5629 5631 5633 5634 5635 5636 5636 5636 5635 5634 5632 5630 5627 5624 5620 5616 5611 5605 5599 5592 5585 5577 5569 5561 5552 5543 5532 5519
5583 5586 5590 5591 5593 5596 5599 5601 5604 5607 5610 5613 5615 5618 5620 5622 5624 5626 5627 5629 5629 5630 5630 5629 5628 5626 5624 5621 5618 5615 5610 5606 5600 5594 5588 5581 5573 5565 5557 5549 5540 5529 5518 5504
5583 5587 5587 5589 5592 5594 5596 5599 5601 5604 5606 5609 5611 5614 5616 5618 5620 5621 5622 5623 5623 5623 5622 5621 5620 5618 5616 5613 5609 5605 5600 5595 5589 5583 5576 5569 5562 5554 5545 5536 5526 5515 5503 5489
5581 5583 5585 5587 5589 5592 5594 5597 5599 5601 5603 5606 5608 5610 5612 5614 5615 5616 5617 5617 5617 5616 5615 5614 5612 5610 5607 5603 5600 5595 5590 5584 5578 5572 5565 5558 5550 5542 5532 5522 5511 5499 5485 5471
5578 5581 5583 5586 5588 5590 5592 5594 5597 5599 5601 5603 5605 5606 5608 5609 5610 5611 5611 5611 5611 5610 5608 5606 5604 5601 5598 5594 5590 5585 5579 5574 5567 5561 5554 5547 5538 5528 5518 5506 5493 5480 5466 5451
5577 5579 5582 5584 5586 5588 5590 5592 5594 5596 5598 5600 5601 5603 5604 5605 5606 5606 5606 5605 5604 5602 5600 5598 5595 5592 5589 5585 5580 5575 5569 5563 5557 5551 5544 5536 5526 5515 5502 5490 5475 5459 5444 5429
5574 5576 5579 5581 5583 5586 5588 5590 5592 5594 5595 5597 5598 5599 5600 5601 5601 5600 5600 5598 5597 5595 5593 5590 5587 5584 5579 5575 5570 5565 5559 5553 5547 5540 5532 5523 5514 5504 5491 5476 5458 5441 5425 5409
5571 5573 5576 5578 5581 5583 5585 5587 5589 5591 5593 5594 5595 5595 5596 5595 5595 5594 5593 5591 5589 5587 5584 5581 5578 5574 5570 5565 5560 5555 5549 5543 5536 5528 5520 5511 5500 5488 5476 5462 5447 5429 5410 5393
5569 5572 5574 5576 5579 5581 5583 5585 5587 5588 5589 5590 5590 5590 5590 5589 5589 5587 5586 5584 5581 5579 5576 5573 5569 5565 5560 5556 5551 5545 5539 5532 5525 5516 5507 5497 5485 5472 5458 5444 5429 5413 5398 5381
5567 5569 5572 5574 5577 5578 5580 5582 5583 5584 5584 5585 5584 5584 5583 5582 5581 5580 5578 5575 5573 5570 5567 5564 5560 5556 5551 5546 5541 5535 5528 5521 5513 5504 5493 5482 5469 5456 5442 5427 5411 5396 5381 5368
5565 5567 5570 5572 5573 5575 5576 5577 5578 5578 5578 5578 5578 5577 5576 5575 5573 5572 5570 5567 5565 5562 5559 5555 5551 5546 5542 5537 5531 5524 5517 5509 5500 5490 5479 5467 5453 5439 5425 5410 5395 5380 5366 5353
5562 5565 5566 5568 5569 5570 5571 5571 5572 5572 5572 5572 5571 5570 5569 5567 5566 5564 5562 5559 5557 5554 5550 5546 5542 5537 5532 5527 5520 5513 5506 5497 5487 5476 5464 5451 5437 5423 5408 5394 5379 5366 5354 5343
5558 5559 5561 5562 5563 5564 5564 5565 5565 5565 5565 5564 5564 5563 5561 5560 5558 5556 5554 5551 5548 5545 5541 5537 5533 5528 5523 5517 5510 5502 5493 5484 5473 5461 5448 5435 5420 5406 5392 5378 5365 5354 5343 5334
5552 5553 5554 5556 5557 5557 5558 5558 5558 5558 5557 5557 5556 5555 5554 5552 5551 5548 5546 5543 5540 5537 5533 5529 5524 5519 5513 5506 5499 5490 5480 5470 5458 5446 5433 5419 5405 5391 5377 5365 5354 5343 5335 5328
5546 5547 5548 5549 5550 5551 5551 5551 5551 5551 5550 5550 5549 5548 5546 5545 5543 5540 5538 5535 5532 5528 5524 5520 5514 5509 5502 5495 5486 5477 5466 5455 5443 5430 5417 5404 5390 5376 5364 5353 5343 5335 5328 5323
5539 5540 5542 5543 5543 5544 5544 5544 5544 5544 5543 5543 5542 5540 5539 5537 5535 5533 5530 5527 5523 5520 5515 5510 5505 5498 5491 5482 5473 5463 5452 5440 5428 5415 5402 5388 5375 5363 5352 5343 5335 5328 5323 5319
5532 5534 5535 5536 5537 5537 5537 5537 5537 5537 5536 5535 5534 5533 5531 5529 5527 5525 5522 5519 5515 5511 5506 5501 5494 5487 5478 5469 5460 5449 5438 5426 5413 5400 5386 5373 5362 5351 5342 5334 5328 5323 5320 5318
5526 5527 5528 5529 5530 5530 5530 5530 5530 5530 5529 5528 5527 5525 5524 5522 5520 5517 5514 5511 5507 5502 5496 5490 5482 5474 5465 5456 5446 5435 5423 5411 5398 5384 5372 5360 5350 5341 5333 5327 5322 5319 5318 5318
5519 5520 5521 5522 5523 5523 5523 5523 5523 5522 5522 5521 5519 5518 5516 5514 5512 5509 5506 5502 5497 5491 5485 5478 5470 5462 5453 5443 5432 5421 5409 5396 5383 5371 5360 5350 5341 5333 5326 5322 5319 5318 5318 5320
5512 5513 5514 5515 5516 5516 5516 5516 5516 5515 5514 5514 5512 5511 5509 5506 5503 5500 5496 5491 5486 5480 5473 5466 5458 5449 5439 5429 5418 5407 5394 5382 5370 5359 5349 5340 5333 5326 5322 5319 5318 5319 5321 5322
5505 5506 5507 5508 5508 5509 5509 5509 5509 5508 5507 5506 5505 5503 5500 5498 5494 5490 5486 5480 5474 5468 5461 5453 5445 5436 5426 5416 5404 5392 5381 5369 5358 5349 5341 5333 5327 5322 5319 5319 5320 5322 5324 5326
Wind_Speed
5 9 13 18 22 27 27 22 20 22 25 26 25 25 25 24 23 21 20 19 19 19 19 20 21 22 24 26 28 30 32 34 36 38 41 43 46 48 50 52 55 58 61 64
7 9 13 14 18 21 21 20 21 24 26 26 25 25 24 22 21 20 19 19 19 19 19 20 21 22 25 27 29 31 33 35 37 40 43 45 47 49 52 54 57 61 63 64
9 9 10 10 13 16 17 20 23 24 22 21 21 21 21 20 19 18 18 18 18 18 19 20 21 24 26 28 30 32 34 37 39 42 44 46 48 51 53 56 59 62 63 63
11 11 10 10 13 16 17 19 20 19 19 19 19 20 20 19 18 17 17 17 17 18 19 21 23 25 26 28 31 33 36 39 41 43 46 48 50 53 55 58 60 60 61 63
11 11 11 12 14 15 16 18 18 18 17 18 18 18 17 17 17 17 17 17 18 19 21 22 24 25 27 30 32 35 38 40 42 45 47 49 52 54 57 58 58 60 62 66
10 11 10 10 11 12 13 15 16 16 16 16 16 16 15 17 17 17 18 19 20 21 22 23 25 27 29 32 34 37 39 41 43 45 48 51 53 55 56 56 58 61 65 70
8 8 8 9 9 10 12 14 15 16 16 16 16 17 18 18 18 18 18 19 20 21 22 24 26 28 31 33 36 38 40 42 44 47 50 52 53 54 55 56 59 64 69 76
9 9 9 9 10 11 12 13 14 15 15 16 16 17 17 17 17 17 18 19 20 21 23 25 27 30 32 34 36 38 41 43 46 48 50 51 52 53 55 58 62 68 73 80
12 12 11 11 12 12 12 12 13 14 14 14 14 15 15 15 16 16 17 18 20 22 24 27 29 31 33 35 37 39 41 44 46 48 49 50 52 54 57 62 67 72 78 84
12 12 12 12 13 13 12 12 12 13 13 13 13 13 13 14 15 16 17 19 21 23 25 27 29 31 33 35 37 40 42 44 46 47 49 50 53 56 61 66 72 78 83 88
13 13 13 13 13 13 12 12 12 12 12 12 12 13 13 13 14 16 18 19 22 24 26 28 30 32 34 36 38 41 43 44 45 47 48 51 55 60 66 72 78 83 88 92
15 15 15 14 14 13 13 12 12 12 12 12 12 12 12 13 15 17 19 21 23 25 27 29 30 32 35 38 40 41 43 44 45 47 50 54 59 65 71 77 83 88 91 94
15 15 14 14 14 14 13 12 12 11 11 11 11 11 13 14 16 18 20 22 24 26 28 30 32 34 37 39 40 41 42 43 46 49 53 58 63 69 74 80 85 89 92 94
15 15 14 14 13 13 13 12 11 10 10 10 11 13 15 17 19 21 23 24 26 28 30 32 34 36 38 39 40 41 42 45 48 53 57 62 68 73 78 82 86 89 91 89
14 14 13 13 12 12 11 11 10 10 11 13 15 17 19 20 22 23 25 26 27 29 31 33 35 37 38 39 39 41 44 48 52 57 62 67 72 77 82 85 88 89 87 81
14 13 13 12 12 12 12 12 12 14 15 17 18 20 21 22 23 25 26 27 28 30 32 34 36 37 37 38 40 43 47 52 56 61 67 72 76 80 84 86 88 86 80 72
13 13 13 13 13 14 15 16 17 18 20 21 21 22 23 23 24 25 26 28 30 32 34 35 36 36 38 40 43 47 51 56 61 66 71 75 79 82 85 87 85 79 71 64
15 14 15 16 17 18 19 20 21 22 22 23 23 23 24 24 25 26 27 29 31 33 34 35 36 37 39 43 46 51 55 60 65 69 74 78 81 84 86 84 78 70 62 55
18 19 19 20 20 21 21 22 23 23 23 23 23 23 24 24 26 27 29 31 32 33 34 35 36 39 42 46 50 54 59 63 68 73 77 80 83 85 83 77 69 62 54 45
21 21 21 21 22 22 22 22 23 23 23 23 23 24 24 25 27 29 30 31 31 32 33 35 38 41 45 49 54 58 62 67 71 75 79 81 83 82 76 68 61 53 44 35
22 22 22 22 22 23 23 23 23 23 23 23 23 24 25 27 28 29 29 30 31 32 34 37 41 44 49 53 57 62 66 70 74 78 80 82 80 75 67 60 52 43 34 25
23 23 23 23 23 23 23 23 23 23 23 24 24 25 26 27 28 28 29 30 31 34 37 40 44 48 53 57 61 65 69 73 76 79 81 80 74 66 59 52 43 34 25 15
23 23 23 23 23 23 23 23 23 23 24 24 25 25 26 26 27 28 29 30 33 36 40 44 48 52 56 60 64 68 72 75 78 80 78 73 66 59 51 43 34 24 14 6
21 22 22 22 22 22 22 23 23 23 24 24 24 24 24 25 26 28 30 33 36 40 44 48 52 56 60 64 67 71 74 77 78 77 72 65 58 51 43 33 23 13 3 4
21 21 22 22 22 22 22 22 22 22 22 21 22 22 24 26 28 30 34 37 41 44 48 52 55 59 63 66 70 73 76 77 75 70 63 57 50 42 33 22 11 2 7 12
21 21 21 21 20 20 20 19 19 19 20 21 22 24 26 28 31 34 38 41 45 48 52 55 59 62 65 69 72 74 75 73 68 61 56 49 41 32 21 10 3 10 15 17
20 19 19 19 18 18 18 19 19 20 21 23 25 27 30 33 36 39 42 45 49 52 55 58 61 64 67 70 73 73 71 66 59 54 47 39 31 21 8 5 13 17 19 19
Wind_Direction
160 186 199 200 198 195 192 182 170 166 169 172 175 179 184 188 191 195 201 209 219 228 237 246 253 259 265 270 274 278 281 284 288 290 292 294 296 297 298 299 301 302 304 306
128 178 187 187 195 193 187 171 158 158 161 167 170 176 183 187 192 199 207 216 226 234 243 251 258 264 269 274 277 280 284 287 290 291 293 296 297 299 300 301 303 305 306 308
116 144 161 170 174 172 167 156 153 157 164 168 173 181 185 190 197 205 213 223 231 241 251 258 264 269 273 276 280 284 287 289 291 293 295 297 298 300 302 303 305 306 308 308
129 140 144 148 156 158 162 163 162 166 171 178 185 190 194 200 207 215 223 232 242 253 260 264 268 272 276 280 283 286 288 290 293 295 296 298 300 301 303 305 306 307 308 309
143 149 146 151 159 164 171 178 183 188 189 191 195 199 203 210 220 228 235 244 252 258 263 267 271 275 279 282 285 287 290 292 294 296 297 299 301 303 305 306 307 309 310 311
149 151 155 158 165 172 181 188 193 199 204 208 212 217 221 228 235 241 247 252 257 262 266 271 275 279 282 284 287 289 291 293 294 296 298 301 302 304 306 307 308 310 312 313
174 170 174 177 182 188 198 202 205 209 215 219 223 227 232 239 244 249 252 256 261 265 270 274 278 281 283 286 288 290 292 294 296 298 300 302 304 305 307 308 310 312 314 315
195 195 201 199 202 208 214 216 217 219 223 226 229 233 237 242 246 250 255 259 264 269 273 277 280 283 286 288 289 291 294 296 298 300 302 303 305 306 308 310 312 314 315 317
201 205 208 209 210 212 216 219 221 223 225 228 231 234 238 243 249 254 260 265 270 274 278 281 283 286 288 289 291 294 296 298 300 302 303 305 306 308 310 312 314 316 317 317
203 204 206 206 207 210 213 217 221 225 227 230 233 236 241 247 254 259 265 270 275 279 282 284 286 288 290 292 294 296 298 300 302 303 305 306 309 311 313 315 316 317 318 318
204 208 209 211 214 217 218 219 222 227 230 233 237 242 247 253 259 265 270 276 279 282 285 287 289 290 292 295 297 299 301 302 303 305 307 309 312 314 316 317 318 318 319 320
217 218 217 218 219 219 220 224 230 233 235 236 241 246 251 259 266 272 276 280 283 286 288 290 291 293 295 298 300 301 302 304 305 307 310 312 315 317 318 319 319 320 320 321
218 218 216 216 219 221 224 228 229 229 229 236 243 252 260 269 275 279 282 285 287 289 290 292 294 296 298 300 302 303 305 306 308 311 313 315 317 318 319 320 320 320 321 323
210 208 210 214 218 220 219 218 219 224 235 246 257 265 271 276 281 284 286 288 289 290 292 294 297 299 301 303 304 306 308 309 311 314 315 317 318 319 320 320 321 321 322 323
204 205 208 208 208 209 211 218 228 242 254 264 271 276 279 283 286 288 289 290 290 292 295 298 300 302 304 305 307 309 311 312 314 316 317 318 319 320 321 321 322 323 323 324
199 200 201 205 210 216 226 238 250 262 270 276 279 282 284 287 288 289 289 290 292 295 298 300 303 305 306 308 309 311 313 315 316 318 319 320 320 321 321 322 323 324 324 324
206 210 217 223 230 239 249 259 267 274 279 282 283 284 286 287 288 289 290 292 295 298 301 304 306 307 309 310 312 313 315 316 318 319 320 320 321 321 322 323 324 325 324 324
224 229 236 243 249 255 261 267 272 277 279 281 282 284 286 287 288 290 292 295 298 301 304 306 308 309 311 312 314 315 317 318 319 320 321 321 322 322 323 324 325 325 325 325
237 243 248 253 258 263 267 271 273 276 278 281 283 284 286 287 289 292 295 298 302 304 306 308 310 312 313 314 315 317 318 319 320 321 322 322 322 323 324 325 326 326 326 325
244 248 252 256 261 265 268 270 273 276 278 281 283 284 286 288 291 294 298 301 304 306 308 311 312 313 314 315 316 317 319 320 321 322 322 322 323 324 325 326 326 326 326 326
247 250 254 258 261 264 267 270 273 276 279 281 283 286 288 291 294 297 301 303 305 308 311 312 313 314 315 316 318 319 321 322 322 322 322 323 324 325 326 326 327 327 327 327
250 252 255 258 261 264 268 271 273 276 279 282 285 287 290 293 297 299 302 304 307 309 311 312 314 315 317 318 319 321 322 322 322 322 323 324 325 326 326 327 327 327 327 330
252 254 256 259 262 265 268 271 274 277 280 283 286 289 292 295 298 301 303 306 308 310 311 313 315 317 318 319 321 322 322 322 322 323 324 325 326 326 327 327 326 327 330 342
253 255 258 260 263 266 269 272 276 279 282 284 287 290 293 296 299 302 304 307 309 311 313 315 317 318 319 320 321 322 322 322 323 324 325 325 326 327 327 327 328 331 352 111
254 257 259 262 264 267 270 274 277 279 281 284 287 291 294 297 301 304 306 308 310 313 315 317 318 319 320 321 321 322 322 323 324 324 325 326 327 327 328 329 333 36 125 127
254 256 258 260 263 266 269 272 275 279 282 286 290 294 297 300 303 306 308 310 312 315 316 318 318 319 320 321 321 322 323 324 324 325 326 327 328 329 331 337 96 130 131 128
250 252 254 257 261 266 270 274 278 282 287 291 294 298 300 303 305 307 309 312 314 315 316 317 318 319 320 321 322 322 323 324 325 326 327 328 329 331 340 116 133 134 131 128